| time (UTC) | temp F | wind direction | speed MPH | gust MPH | rain 1hr in | rain 24hr in | rain mn in | humidity % | barometer mb |
| 20260508113040 | 65 | 280 | 0.0 | 2.0 | 0.00 | 0.01 | 0.00 | 56 | 1016.8 |
| 20260508111539 | 65 | 78 | 0.0 | 2.0 | 0.00 | 0.01 | 0.00 | 60 | 1016.9 |
| 20260508110034 | 64 | 94 | 0.0 | 3.0 | 0.00 | 0.01 | 0.00 | 62 | 1016.9 |
| 20260508104534 | 64 | 105 | 0.0 | 3.0 | 0.00 | 0.01 | 0.00 | 64 | 1017.2 |
| 20260508103035 | 62 | 85 | 0.0 | 2.0 | 0.00 | 0.01 | 0.00 | 65 | 1017.2 |
| 20260508101534 | 62 | 80 | 0.0 | 1.0 | 0.00 | 0.01 | 0.00 | 63 | 1017.3 |
| 20260508100030 | 62 | 74 | 0.0 | 2.0 | 0.00 | 0.01 | 0.00 | 60 | 1017.4 |
| 20260508094528 | 62 | 50 | 1.0 | 3.0 | 0.00 | 0.01 | 0.00 | 66 | 1017.5 |
| 20260508093027 | 61 | 64 | 1.0 | 3.0 | 0.00 | 0.01 | 0.00 | 66 | 1017.6 |
| 20260508091525 | 61 | 88 | 0.0 | 3.0 | 0.00 | 0.01 | 0.00 | 70 | 1017.6 |
| 20260508090039 | 60 | 86 | 0.0 | 3.0 | 0.00 | 0.01 | 0.00 | 72 | 1017.6 |
| 20260508084519 | 59 | 84 | 0.0 | 3.0 | 0.00 | 0.02 | 0.00 | 74 | 1017.6 |
| 20260508083020 | 58 | 30 | 1.0 | 4.0 | 0.00 | 0.02 | 0.00 | 73 | 1017.6 |
| 20260508081514 | 57 | 81 | 0.0 | 3.0 | 0.00 | 0.02 | 0.00 | 75 | 1017.7 |
| 20260508080013 | 56 | 94 | 0.0 | 3.0 | 0.00 | 0.02 | 0.00 | 76 | 1017.7 |
| 20260508074512 | 56 | 99 | 0.0 | 2.0 | 0.00 | 0.06 | 0.00 | 77 | 1017.7 |
| 20260508073009 | 55 | 76 | 0.0 | 2.0 | 0.00 | 0.06 | 0.00 | 78 | 1017.7 |
| 20260508071508 | 54 | 75 | 0.0 | 1.0 | 0.00 | 0.06 | 0.00 | 78 | 1017.7 |
| 20260508070003 | 53 | 75 | 0.0 | 1.0 | 0.00 | 0.06 | 0.00 | 81 | 1017.7 |
| 20260508064617 | 51 | 74 | 0.0 | 2.0 | 0.00 | 0.08 | 0.00 | 84 | 1017.8 |
| 20260508063107 | 49 | 69 | 0.0 | 1.0 | 0.00 | 0.08 | 0.00 | 87 | 1017.7 |
| 20260508061604 | 48 | 68 | 0.0 | 1.0 | 0.00 | 0.08 | 0.00 | 90 | 1017.6 |
| 20260508054546 | 44 | 72 | 0.0 | 0.0 | 0.00 | 0.09 | 0.00 | 93 | 1017.7 |
| 20260508053046 | 43 | 72 | 0.0 | 0.0 | 0.00 | 0.09 | 0.00 | 95 | 1017.7 |
| 20260508051603 | 42 | 72 | 0.0 | 0.0 | 0.00 | 0.09 | 0.00 | 95 | 1017.6 |
| 20260508050043 | 41 | 72 | 0.0 | 0.0 | 0.00 | 0.09 | 0.00 | 95 | 1017.5 |
| 20260508044548 | 40 | 72 | 0.0 | 0.0 | 0.00 | 0.09 | 0.00 | 95 | 1017.4 |
| 20260508043043 | 39 | 72 | 0.0 | 0.0 | 0.00 | 0.09 | 0.00 | 95 | 1017.4 |
| 20260508041542 | 39 | 72 | 0.0 | 0.0 | 0.00 | 0.09 | 0.00 | 95 | 1017.2 |
| 20260508040050 | 39 | 72 | 0.0 | 0.0 | 0.00 | 0.09 | 0.00 | 94 | 1017.1 |
| 20260508034548 | 39 | 72 | 0.0 | 0.0 | 0.00 | 0.09 | 0.00 | 94 | 1017.1 |
| 20260508033046 | 40 | 72 | 0.0 | 0.0 | 0.00 | 0.09 | 0.00 | 94 | 1017.0 |
| 20260508031544 | 40 | 72 | 0.0 | 0.0 | 0.00 | 0.09 | 0.00 | 94 | 1016.9 |
| 20260508030037 | 40 | 72 | 0.0 | 0.0 | 0.00 | 0.09 | 0.00 | 94 | 1016.8 |
| 20260508024559 | 41 | 72 | 0.0 | 0.0 | 0.00 | 0.10 | 0.00 | 94 | 1016.8 |
| 20260508023038 | 41 | 72 | 0.0 | 0.0 | 0.00 | 0.10 | 0.00 | 94 | 1016.9 |
| 20260508021537 | 41 | 72 | 0.0 | 0.0 | 0.00 | 0.10 | 0.00 | 94 | 1017.0 |
| 20260508020035 | 41 | 72 | 0.0 | 0.0 | 0.00 | 0.10 | 0.00 | 94 | 1016.9 |
| 20260508014536 | 42 | 72 | 0.0 | 0.0 | 0.00 | 0.10 | 0.00 | 94 | 1017.0 |
| 20260508013034 | 42 | 72 | 0.0 | 1.0 | 0.00 | 0.10 | 0.00 | 94 | 1016.9 |
| 20260508011532 | 42 | 72 | 0.0 | 0.0 | 0.00 | 0.10 | 0.00 | 94 | 1016.8 |
| 20260508010030 | 42 | 72 | 0.0 | 0.0 | 0.00 | 0.10 | 0.00 | 94 | 1016.9 |
| 20260508004541 | 42 | 72 | 0.0 | 2.0 | 0.00 | 0.10 | 0.00 | 94 | 1016.9 |
| 20260508003026 | 42 | 293 | 0.0 | 0.0 | 0.00 | 0.10 | 0.00 | 94 | 1017.1 |
| 20260508001534 | 42 | 293 | 0.0 | 0.0 | 0.00 | 0.10 | 0.00 | 94 | 1017.2 |
| 20260508000024 | 42 | 293 | 0.0 | 0.0 | 0.00 | 0.10 | 0.00 | 94 | 1017.3 |
| 20260507234523 | 42 | 293 | 0.0 | 0.0 | 0.00 | 0.10 | 0.00 | 93 | 1017.3 |
| 20260507233021 | 43 | 293 | 0.0 | 0.0 | 0.00 | 0.10 | 0.00 | 93 | 1017.4 |
| 20260507231522 | 43 | 293 | 0.0 | 0.0 | 0.00 | 0.10 | 0.00 | 93 | 1017.6 |
| 20260507230018 | 44 | 293 | 0.0 | 0.0 | 0.00 | 0.10 | 0.00 | 93 | 1017.6 |
| 20260507224519 | 44 | 293 | 0.0 | 0.0 | 0.00 | 0.11 | 0.00 | 93 | 1017.6 |
| 20260507223015 | 44 | 293 | 0.0 | 0.0 | 0.00 | 0.11 | 0.00 | 93 | 1017.5 |
| 20260507221514 | 45 | 293 | 0.0 | 0.0 | 0.00 | 0.11 | 0.00 | 92 | 1017.4 |
| 20260507220013 | 45 | 293 | 0.0 | 0.0 | 0.00 | 0.11 | 0.00 | 92 | 1017.4 |
| 20260507214509 | 45 | 293 | 0.0 | 0.0 | 0.00 | 0.11 | 0.11 | 92 | 1017.3 |
| 20260507213011 | 45 | 293 | 0.0 | 0.0 | 0.00 | 0.11 | 0.11 | 92 | 1017.4 |
| 20260507211507 | 46 | 293 | 0.0 | 0.0 | 0.00 | 0.11 | 0.11 | 91 | 1017.3 |
| 20260507210005 | 46 | 293 | 0.0 | 0.0 | 0.00 | 0.11 | 0.11 | 90 | 1017.3 |
| 20260507204503 | 47 | 293 | 0.0 | 0.0 | 0.00 | 0.11 | 0.11 | 89 | 1017.2 |
| 20260507203132 | 48 | 293 | 0.0 | 0.0 | 0.00 | 0.11 | 0.11 | 88 | 1017.2 |
| 20260507201556 | 49 | 273 | 0.0 | 0.0 | 0.00 | 0.11 | 0.11 | 87 | 1017.0 |
| 20260507200057 | 50 | 273 | 0.0 | 0.0 | 0.00 | 0.11 | 0.11 | 84 | 1016.9 |
| 20260507194609 | 51 | 273 | 0.0 | 0.0 | 0.00 | 0.11 | 0.11 | 82 | 1016.8 |
| 20260507193052 | 52 | 273 | 0.0 | 0.0 | 0.00 | 0.11 | 0.11 | 81 | 1016.6 |
| 20260507191551 | 52 | 273 | 0.0 | 0.0 | 0.00 | 0.11 | 0.11 | 80 | 1016.5 |
| 20260507190055 | 52 | 273 | 0.0 | 0.0 | 0.00 | 0.11 | 0.11 | 79 | 1016.4 |
| 20260507184550 | 53 | 273 | 0.0 | 0.0 | 0.00 | 0.12 | 0.11 | 78 | 1016.3 |
| 20260507183047 | 53 | 273 | 0.0 | 1.0 | 0.00 | 0.12 | 0.11 | 77 | 1016.2 |
| 20260507181546 | 53 | 282 | 0.0 | 3.0 | 0.00 | 0.12 | 0.11 | 76 | 1016.0 |
| 20260507180045 | 54 | 267 | 0.0 | 0.0 | 0.00 | 0.12 | 0.11 | 76 | 1016.0 |
| 20260507174547 | 54 | 268 | 0.0 | 1.0 | 0.00 | 0.14 | 0.11 | 76 | 1015.9 |
| 20260507173114 | 54 | 269 | 0.0 | 1.0 | 0.00 | 0.14 | 0.11 | 75 | 1015.7 |
| 20260507171543 | 54 | 263 | 0.0 | 2.0 | 0.00 | 0.14 | 0.11 | 75 | 1015.6 |
| 20260507170041 | 55 | 264 | 0.0 | 0.0 | 0.00 | 0.14 | 0.11 | 75 | 1015.6 |
| 20260507164541 | 55 | 264 | 0.0 | 2.0 | 0.00 | 0.17 | 0.11 | 74 | 1015.6 |
| 20260507163041 | 55 | 263 | 0.0 | 1.0 | 0.00 | 0.17 | 0.11 | 75 | 1015.5 |
| 20260507161547 | 56 | 263 | 1.0 | 3.0 | 0.00 | 0.17 | 0.11 | 73 | 1015.6 |
| 20260507160047 | 56 | 313 | 0.0 | 1.0 | 0.00 | 0.17 | 0.11 | 74 | 1015.6 |
| 20260507154541 | 55 | 315 | 0.0 | 4.0 | 0.00 | 0.17 | 0.11 | 75 | 1015.5 |
| 20260507153039 | 55 | 255 | 0.0 | 2.0 | 0.00 | 0.17 | 0.11 | 76 | 1015.6 |
| 20260507151537 | 55 | 277 | 0.0 | 4.0 | 0.00 | 0.17 | 0.11 | 76 | 1015.5 |
| 20260507150041 | 55 | 277 | 0.0 | 3.0 | 0.00 | 0.17 | 0.11 | 75 | 1015.4 |
| 20260507144537 | 55 | 260 | 0.0 | 3.0 | 0.00 | 0.47 | 0.11 | 76 | 1015.4 |
| 20260507143048 | 55 | 261 | 0.0 | 3.0 | 0.00 | 0.47 | 0.11 | 76 | 1015.4 |
| 20260507141548 | 55 | 284 | 0.0 | 4.0 | 0.00 | 0.47 | 0.11 | 75 | 1015.5 |
| 20260507140035 | 55 | 328 | 0.0 | 4.0 | 0.00 | 0.47 | 0.11 | 76 | 1015.3 |
| 20260507134535 | 55 | 236 | 0.0 | 5.0 | 0.00 | 0.49 | 0.11 | 76 | 1015.4 |
| 20260507133102 | 56 | 240 | 2.0 | 5.0 | 0.01 | 0.49 | 0.11 | 74 | 1015.3 |
| 20260507131536 | 57 | 265 | 0.0 | 4.0 | 0.01 | 0.49 | 0.11 | 71 | 1015.2 |
| 20260507130036 | 56 | 276 | 0.0 | 4.0 | 0.01 | 0.49 | 0.11 | 73 | 1015.2 |
| 20260507124531 | 55 | 283 | 0.0 | 4.0 | 0.01 | 0.49 | 0.11 | 76 | 1015.2 |
| 20260507123038 | 56 | 288 | 0.0 | 2.0 | 0.00 | 0.48 | 0.10 | 73 | 1015.1 |
| 20260507121530 | 56 | 277 | 0.0 | 2.0 | 0.00 | 0.48 | 0.10 | 75 | 1015.1 |
| 20260507120025 | 54 | 235 | 0.0 | 2.0 | 0.00 | 0.48 | 0.10 | 77 | 1015.2 |